Volver al catálogo

THOR ABLESTAR DEB

ActivoUNKNOWN
NORAD 4014·DEBRIS·🇺🇸 United States

Lanzado Jun 29, 1961 desde Cape Canaveral Space Force Station

Loading…

Próximos Pases (próximas 24 horas)

TLE

ActualizadoSource: Space-Track

Época: Sep 13, 2026, 22:39 UTC

1  4014U 61015JM  26256.94392595  .00000121  00000-0  47534-3 0  9999
2  4014  67.6275  66.5313 0812801 287.9521 236.6265 12.30169325925280

Sigue THOR ABLESTAR DEB en tiempo real con AllMySat

Download on the App Store